Regional Weather Roundup
Issued by NWS Newport/Morehead, NC

Current Version | Previous Version | Text Only | Print | Product List | Glossary Off
Versions: 1 2 3 4 5 6 7 8 9 10 11 12 13 14 15 16 17 18 19 20 21 22 23 24 25 26 27 28 29 30 31 32 33 34 35 36 37 38 39 40 41 42 43 44 45 46 47 48 49 50

000
ASUS42 KMHX 061413
RWRMHX
WEATHER ROUNDUP FOR EASTERN NORTH CAROLINA
NATIONAL WEATHER SERVICE NEWPORT/MOREHEAD CITY NC
1000 AM EDT WED MAY 06 2015

NOTE: "FAIR" INDICATES FEW OR NO CLOUDS BELOW 12,000 FEET
WITH NO SIGNIFICANT WEATHER AND/OR OBSTRUCTIONS TO VISIBILITY

NCZ015>017-031-032-045>047-102-103-061500-
NORTH COAST

CITY           SKY/WX    TMP DP  RH WIND       PRES   REMARKS
EDENTON        MOSUNNY   71  55  58 S5        30.26S
ELIZABETH CITY MOSUNNY   71  57  61 S6        30.26F
KITTY HAWK     PTSUNNY   71  58  64 SE5       30.26S
MANTEO         PTSUNNY   69  55  60 SW3       30.27S

$$

NCZ045>047-081-094-103-104-061500-
CENTRAL COAST

CITY           SKY/WX    TMP DP  RH WIND       PRES   REMARKS
FRISCO         PTSUNNY   70  54  56 E6        30.27R
SWANQUARTER      N/A     72 N/A N/A SE6       30.24S

$$

NCZ095-097-098-100-101-061500-
SOUTHERN COAST

CITY           SKY/WX    TMP DP  RH WIND       PRES   REMARKS
BEAUFORT       PTSUNNY   73  58  59 NE7       30.25R
CEDAR ISLAND     N/A     72 N/A N/A NE6       30.30S
JACKSONVILLE   PTSUNNY   70  58  65 NE7       30.25R
PINEY ISLAND   CLOUDY   N/A N/A N/A NE7       30.26R
WILMINGTON     PTSUNNY   72  61  68 E8        30.23S


$$

NCZ011>013-027>030-043-044-078>080-089-090>093-098-061500-
COASTAL PLAIN

CITY           SKY/WX    TMP DP  RH WIND       PRES   REMARKS
AHOSKIE        MOSUNNY   69  56  63 SE3       30.26S
CLINTON        PTSUNNY   70  59  68 CALM      30.26S
ELIZABETHTOWN  PTSUNNY   69  60  72 CALM      30.24S
GOLDSBORO      PTSUNNY   71  57  61 CALM      30.23S
GREENVILLE     MOSUNNY   70  55  60 CALM      30.26S
HAVELOCK       CLOUDY    72  57  59 NE5       30.27R
KENANSVILLE    PTSUNNY   69  57  65 SE3       30.27R
KINSTON        PTSUNNY   70  57  64 SE3       30.26S
NEW BERN       PTSUNNY   71  56  58 SE6       30.27S
RICHLANDS      PTSUNNY   70  55  60 E8        30.27R
ROCKY MOUNT    MOSUNNY   69  57  65 CALM      30.25F
WASHINGTON     MOSUNNY   69  56  62 SE3       30.26S
WHITEVILLE     PTSUNNY   70  59  68 NE8       30.23S

$$

AMZ130-135-150-152-154-156-158-170-250-252-270-ANZ085-086-088-633-658-670-061500-
MARINE OBSERVATIONS

STATION/POSITION TIME  TEMP    WIND        PRES    WAVE   SWELL
                       AIR SEA DIR/SP/G            HT/PER HT/PER
                 (UTC) (F)     (DEG/KT/KT) (MB)    (FT/S) (FT/S)
CHESAPEAKE LIGHT 1400   63     180/  8/  8 1025.2
64 E VA BEACH    1350   60 57  270/  2/  2 1024.7    2/ 9   2/ 9
DUCK             1306   61 51   40/  2/  2 1023.9
2 E DUCK         1311      56                N/A     2/11   2/11
OREGON INLET     1300   68 70   70/  3/  4 1024.9
13E OREGON INLT  1400      61                N/A     2/ 7
HATTERAS CG      1306   70 67   80/  4/  5 1024.1
DIAMOND BUOY     1350   71 75  130/ 10/ 12 1025.0    3/ 9   3/ 9
CAPE LOOKOUT     1400   69      30/ 10/ 12 1023.9
BEAUFORT LAB     1318   70 67   20/  6/  7 1023.5
27 SE WRIGHTSVLE 1300   68 71   80/ 12/ 14   N/A
5 SE WRIGHTSVLE  1308   69 69   80/ 12/ 16 1023.4
225 S CAPE HAT   1350   66 71   70/ 25/ 31 1020.4    7/ 8
41 SE CHARLESTON 1350   73 73   50/ 17/ 21 1019.9    6/ 8   3/ 8

$$



USA.gov is the U.S. government's official web portal to all federal, state and local government web resources and services.